Time,TemperatureF,DewpointF,PressureIn,WindDirection,WindDirectionDegrees,WindSpeedMPH,WindSpeedGustMPH,Humidity,HourlyPrecipIn,Conditions,Clouds,dailyrainin,SoftwareType,DateUTC
2013-07-19 00:01:00,85.8,79.0,29.94,SSE,161,2.0,7.0,80,0.00,,,0.25,meteohub,2013-07-19 04:01:00,
2013-07-19 00:06:00,85.8,79.0,29.94,South,184,3.0,7.0,80,0.00,,,0.25,meteohub,2013-07-19 04:06:00,
2013-07-19 00:11:00,85.6,79.2,29.94,SSW,203,4.0,7.0,81,0.00,,,0.00,meteohub,2013-07-19 04:11:00,
2013-07-19 00:16:00,85.6,79.2,29.94,SW,214,4.0,6.0,81,0.00,,,0.00,meteohub,2013-07-19 04:16:00,
2013-07-19 00:21:00,85.6,79.2,29.94,SW,214,1.0,7.0,81,0.00,,,0.00,meteohub,2013-07-19 04:21:00,
2013-07-19 00:26:00,85.6,79.2,29.94,South,188,1.0,7.0,81,0.00,,,0.00,meteohub,2013-07-19 04:26:00,
2013-07-19 00:31:00,85.6,79.5,29.94,SSW,210,4.0,7.0,82,0.00,,,0.00,meteohub,2013-07-19 04:31:00,
2013-07-19 00:36:00,85.6,79.5,29.94,South,188,2.0,6.0,82,0.00,,,0.00,meteohub,2013-07-19 04:36:00,
2013-07-19 00:41:00,85.6,79.5,29.94,SSE,150,3.0,6.0,82,0.00,,,0.00,meteohub,2013-07-19 04:41:00,
2013-07-19 00:46:00,85.6,79.2,29.94,South,180,5.0,6.0,81,0.00,,,0.00,meteohub,2013-07-19 04:46:00,
2013-07-19 00:51:00,85.5,79.0,29.94,SSW,212,3.0,5.0,81,0.00,,,0.00,meteohub,2013-07-19 04:51:00,
2013-07-19 00:56:00,85.5,79.0,29.94,SSE,160,2.0,5.0,81,0.00,,,0.00,meteohub,2013-07-19 04:56:00,
2013-07-19 01:01:00,85.3,78.8,29.94,SSE,168,2.0,5.0,81,0.00,,,0.00,meteohub,2013-07-19 05:01:00,
2013-07-19 01:06:00,85.5,79.0,29.94,SE,134,2.0,4.0,81,0.00,,,0.00,meteohub,2013-07-19 05:06:00,
2013-07-19 01:11:00,85.3,78.8,29.94,SW,231,2.0,4.0,81,0.00,,,0.00,meteohub,2013-07-19 05:11:00,
2013-07-19 01:17:00,85.3,78.8,29.94,SSW,201,1.0,5.0,81,0.00,,,0.00,meteohub,2013-07-19 05:17:00,
2013-07-19 01:22:00,85.1,78.3,29.93,South,181,3.0,5.0,80,0.00,,,0.00,meteohub,2013-07-19 05:22:00,
2013-07-19 01:27:00,85.3,78.4,29.94,South,176,5.0,6.0,80,0.00,,,0.00,meteohub,2013-07-19 05:27:00,
2013-07-19 01:32:00,85.3,78.1,29.94,SW,235,1.0,6.0,79,0.00,,,0.00,meteohub,2013-07-19 05:32:00,
2013-07-19 01:37:00,85.3,78.4,29.94,WSW,250,2.0,6.0,80,0.00,,,0.00,meteohub,2013-07-19 05:37:00,
2013-07-19 01:42:00,84.9,78.1,29.94,SSE,150,2.0,5.0,80,0.00,,,0.00,meteohub,2013-07-19 05:42:00,
2013-07-19 01:47:00,84.9,78.1,29.94,SSE,159,2.0,5.0,80,0.00,,,0.00,meteohub,2013-07-19 05:47:00,
2013-07-19 01:52:00,84.9,77.7,29.94,South,185,2.0,5.0,79,0.00,,,0.00,meteohub,2013-07-19 05:52:00,
2013-07-19 01:57:00,84.9,77.7,29.94,SSW,193,3.0,5.0,79,0.00,,,0.00,meteohub,2013-07-19 05:57:00,
2013-07-19 02:02:00,84.9,77.7,29.94,South,172,2.0,5.0,79,0.00,,,0.00,meteohub,2013-07-19 06:02:00,
2013-07-19 02:07:00,84.7,77.5,29.94,SE,131,1.0,6.0,79,0.00,,,0.00,meteohub,2013-07-19 06:07:00,
2013-07-19 02:12:00,84.7,77.2,29.94,SSE,165,2.0,6.0,78,0.00,,,0.00,meteohub,2013-07-19 06:12:00,
2013-07-19 02:17:00,84.9,77.4,29.94,South,186,2.0,6.0,78,0.00,,,0.00,meteohub,2013-07-19 06:17:00,
2013-07-19 02:22:00,84.7,77.2,29.94,South,185,3.0,6.0,78,0.00,,,0.00,meteohub,2013-07-19 06:22:00,
2013-07-19 02:27:00,84.6,77.0,29.94,SSW,209,2.0,6.0,78,0.00,,,0.00,meteohub,2013-07-19 06:27:00,
2013-07-19 02:32:00,84.6,77.0,29.94,SSE,152,2.0,5.0,78,0.00,,,0.00,meteohub,2013-07-19 06:32:00,
2013-07-19 02:37:00,84.6,77.0,29.94,SSW,211,1.0,5.0,78,0.00,,,0.00,meteohub,2013-07-19 06:37:00,
2013-07-19 02:42:00,84.4,76.8,29.94,SSE,158,4.0,4.0,78,0.00,,,0.00,meteohub,2013-07-19 06:42:00,
2013-07-19 02:47:00,84.2,76.6,29.94,South,187,4.0,5.0,78,0.00,,,0.00,meteohub,2013-07-19 06:47:00,
2013-07-19 02:52:00,84.2,76.6,29.94,SSW,194,3.0,5.0,78,0.00,,,0.00,meteohub,2013-07-19 06:52:00,
2013-07-19 02:57:00,84.4,76.5,29.93,South,187,1.0,5.0,77,0.00,,,0.00,meteohub,2013-07-19 06:57:00,
2013-07-19 03:02:00,84.2,76.3,29.94,SSW,201,3.0,6.0,77,0.00,,,0.00,meteohub,2013-07-19 07:02:00,
2013-07-19 03:07:00,84.0,76.5,29.94,SSW,211,2.0,6.0,78,0.00,,,0.00,meteohub,2013-07-19 07:07:00,
2013-07-19 03:12:00,84.0,76.5,29.94,SW,235,1.0,5.0,78,0.00,,,0.00,meteohub,2013-07-19 07:12:00,
2013-07-19 03:17:00,83.8,76.3,29.94,South,188,4.0,5.0,78,0.00,,,0.00,meteohub,2013-07-19 07:17:00,
2013-07-19 03:22:00,83.8,76.3,29.94,SSW,200,3.0,5.0,78,0.00,,,0.00,meteohub,2013-07-19 07:22:00,
2013-07-19 03:27:00,83.7,76.1,29.93,SSE,160,2.0,6.0,78,0.00,,,0.00,meteohub,2013-07-19 07:27:00,
2013-07-19 03:32:00,83.7,76.1,29.93,SSE,151,2.0,6.0,78,0.00,,,0.00,meteohub,2013-07-19 07:32:00,
2013-07-19 03:37:00,83.5,75.9,29.93,SSW,200,2.0,6.0,78,0.00,,,0.00,meteohub,2013-07-19 07:37:00,
2013-07-19 03:42:00,83.5,75.9,29.93,SW,217,2.0,5.0,78,0.00,,,0.00,meteohub,2013-07-19 07:42:00,
2013-07-19 03:47:00,83.3,75.7,29.93,WSW,238,2.0,5.0,78,0.00,,,0.00,meteohub,2013-07-19 07:47:00,
2013-07-19 03:52:00,83.3,75.7,29.93,South,186,3.0,5.0,78,0.00,,,0.00,meteohub,2013-07-19 07:52:00,
2013-07-19 03:57:00,83.3,75.7,29.93,South,174,2.0,5.0,78,0.00,,,0.00,meteohub,2013-07-19 07:57:00,
2013-07-19 04:02:00,83.1,75.9,29.93,SW,215,1.0,5.0,79,0.00,,,0.00,meteohub,2013-07-19 08:02:00,
2013-07-19 04:07:00,82.9,75.7,29.93,South,186,2.0,5.0,79,0.00,,,0.00,meteohub,2013-07-19 08:07:00,
2013-07-19 04:12:00,82.9,75.4,29.93,WSW,247,2.0,5.0,78,0.00,,,0.00,meteohub,2013-07-19 08:12:00,
2013-07-19 04:17:00,83.1,75.6,29.93,SSW,193,2.0,5.0,78,0.00,,,0.00,meteohub,2013-07-19 08:17:00,
2013-07-19 04:22:00,82.9,75.4,29.93,SSE,154,2.0,5.0,78,0.00,,,0.00,meteohub,2013-07-19 08:22:00,
2013-07-19 04:27:00,82.9,75.4,29.93,SSW,208,0.0,5.0,78,0.00,,,0.00,meteohub,2013-07-19 08:27:00,
2013-07-19 04:32:00,82.9,75.4,29.93,South,191,2.0,5.0,78,0.00,,,0.00,meteohub,2013-07-19 08:32:00,
2013-07-19 04:37:00,82.9,75.4,29.93,South,172,1.0,5.0,78,0.00,,,0.00,meteohub,2013-07-19 08:37:00,
2013-07-19 04:42:00,82.8,75.2,29.93,SE,141,2.0,4.0,78,0.00,,,0.00,meteohub,2013-07-19 08:42:00,
2013-07-19 04:47:00,82.8,75.2,29.93,SW,231,0.0,4.0,78,0.00,,,0.00,meteohub,2013-07-19 08:47:00,
2013-07-19 04:52:00,82.8,75.2,29.93,SSW,198,3.0,5.0,78,0.00,,,0.00,meteohub,2013-07-19 08:52:00,
2013-07-19 04:57:00,82.8,74.8,29.92,SSE,160,2.0,6.0,77,0.00,,,0.00,meteohub,2013-07-19 08:57:00,
2013-07-19 05:02:00,82.8,74.8,29.92,South,177,0.0,6.0,77,0.00,,,0.00,meteohub,2013-07-19 09:02:00,
2013-07-19 05:07:00,82.8,74.8,29.93,SW,235,2.0,6.0,77,0.00,,,0.00,meteohub,2013-07-19 09:07:00,
2013-07-19 05:12:00,82.8,74.8,29.93,South,174,2.0,6.0,77,0.00,,,0.00,meteohub,2013-07-19 09:12:00,
2013-07-19 05:17:00,82.8,74.8,29.93,SSW,212,2.0,6.0,77,0.00,,,0.00,meteohub,2013-07-19 09:17:00,
2013-07-19 05:22:00,82.6,74.7,29.93,SSE,150,2.0,5.0,77,0.00,,,0.00,meteohub,2013-07-19 09:22:00,
2013-07-19 05:27:00,82.6,74.7,29.93,SSW,194,3.0,6.0,77,0.00,,,0.00,meteohub,2013-07-19 09:27:00,
2013-07-19 05:32:00,82.6,74.7,29.93,South,191,4.0,6.0,77,0.00,,,0.00,meteohub,2013-07-19 09:32:00,
2013-07-19 05:37:00,82.8,74.8,29.93,SSW,198,2.0,6.0,77,0.00,,,0.00,meteohub,2013-07-19 09:37:00,
2013-07-19 05:42:00,82.6,75.0,29.93,SW,224,7.0,7.0,78,0.00,,,0.00,meteohub,2013-07-19 09:42:00,
2013-07-19 05:47:00,82.6,75.0,29.93,SE,134,3.0,7.0,78,0.00,,,0.00,meteohub,2013-07-19 09:47:00,
2013-07-19 05:52:00,82.4,74.8,29.93,West,260,3.0,7.0,78,0.00,,,0.00,meteohub,2013-07-19 09:52:00,
2013-07-19 05:57:00,82.6,75.0,29.94,South,177,3.0,7.0,78,0.00,,,0.00,meteohub,2013-07-19 09:57:00,
2013-07-19 06:01:00,82.6,75.0,29.94,SW,214,2.0,7.0,78,0.00,,,0.00,meteohub,2013-07-19 10:01:00,
2013-07-19 06:07:00,82.4,74.8,29.94,WNW,300,1.0,6.0,78,0.00,,,0.00,meteohub,2013-07-19 10:07:00,
2013-07-19 06:12:00,82.2,74.7,29.94,WSW,243,0.0,6.0,78,0.00,,,0.00,meteohub,2013-07-19 10:12:00,
2013-07-19 06:17:00,82.2,75.0,29.94,WNW,288,1.0,5.0,79,0.00,,,0.00,meteohub,2013-07-19 10:17:00,
2013-07-19 06:22:00,82.2,75.0,29.94,WSW,238,2.0,2.0,79,0.00,,,0.00,meteohub,2013-07-19 10:22:00,
2013-07-19 06:27:00,82.4,75.2,29.94,SW,224,0.0,3.0,79,0.00,,,0.00,meteohub,2013-07-19 10:27:00,
2013-07-19 06:32:00,82.4,75.2,29.94,WSW,239,0.0,3.0,79,0.00,,,0.00,meteohub,2013-07-19 10:32:00,
2013-07-19 06:37:00,82.4,74.8,29.93,WSW,240,0.0,3.0,78,0.00,,,0.00,meteohub,2013-07-19 10:37:00,
2013-07-19 06:42:00,82.4,74.8,29.93,West,262,1.0,4.0,78,0.00,,,0.00,meteohub,2013-07-19 10:42:00,
2013-07-19 06:47:00,82.6,74.7,29.93,SSW,210,3.0,5.0,77,0.00,,,0.00,meteohub,2013-07-19 10:47:00,
2013-07-19 06:52:00,82.8,74.8,29.93,SSE,165,0.0,6.0,77,0.00,,,0.00,meteohub,2013-07-19 10:52:00,
2013-07-19 06:57:00,82.8,75.2,29.93,ESE,120,1.0,6.0,78,0.00,,,0.00,meteohub,2013-07-19 10:57:00,
2013-07-19 07:02:00,82.8,75.2,29.93,SE,145,2.0,6.0,78,0.00,,,0.00,meteohub,2013-07-19 11:02:00,
2013-07-19 07:07:00,82.8,75.2,29.93,SSW,205,4.0,5.0,78,0.00,,,0.00,meteohub,2013-07-19 11:07:00,
2013-07-19 07:12:00,82.8,75.2,29.93,SSE,165,1.0,6.0,78,0.00,,,0.00,meteohub,2013-07-19 11:12:00,
2013-07-19 07:17:00,82.9,75.0,29.93,SSE,166,3.0,6.0,77,0.00,,,0.00,meteohub,2013-07-19 11:17:00,
2013-07-19 07:22:00,83.3,75.4,29.93,SSE,162,2.0,6.0,77,0.00,,,0.00,meteohub,2013-07-19 11:22:00,
2013-07-19 07:27:00,83.5,75.0,29.93,South,174,3.0,5.0,76,0.00,,,0.00,meteohub,2013-07-19 11:27:00,
2013-07-19 07:32:00,83.5,75.0,29.93,SSE,160,3.0,5.0,76,0.00,,,0.00,meteohub,2013-07-19 11:32:00,
2013-07-19 07:37:00,83.7,75.7,29.93,South,186,2.0,6.0,77,0.00,,,0.00,meteohub,2013-07-19 11:37:00,
2013-07-19 07:42:00,83.7,75.2,29.93,SE,133,3.0,7.0,76,0.00,,,0.00,meteohub,2013-07-19 11:42:00,
2013-07-19 07:47:00,83.8,75.0,29.93,SW,214,1.0,7.0,75,0.00,,,0.00,meteohub,2013-07-19 11:47:00,
2013-07-19 07:52:00,84.0,75.2,29.93,South,169,2.0,7.0,75,0.00,,,0.00,meteohub,2013-07-19 11:52:00,
2013-07-19 07:57:00,84.0,75.2,29.93,South,183,3.0,7.0,75,0.00,,,0.00,meteohub,2013-07-19 11:57:00,
2013-07-19 08:02:00,84.4,75.2,29.93,South,173,2.0,7.0,74,0.00,,,0.00,meteohub,2013-07-19 12:02:00,
2013-07-19 08:07:00,84.6,75.4,29.93,SW,215,1.0,8.0,74,0.00,,,0.00,meteohub,2013-07-19 12:07:00,
2013-07-19 08:12:00,84.7,75.2,29.94,WSW,238,3.0,8.0,73,0.00,,,0.00,meteohub,2013-07-19 12:12:00,
2013-07-19 08:17:00,84.7,75.6,29.94,SSE,167,1.0,9.0,74,0.00,,,0.00,meteohub,2013-07-19 12:17:00,
2013-07-19 08:22:00,85.3,75.6,29.94,SE,143,1.0,9.0,73,0.00,,,0.00,meteohub,2013-07-19 12:22:00,
2013-07-19 08:27:00,85.8,75.7,29.94,SE,132,2.0,9.0,72,0.00,,,0.00,meteohub,2013-07-19 12:27:00,
2013-07-19 08:32:00,86.4,76.3,29.94,ESE,117,2.0,6.0,72,0.00,,,0.00,meteohub,2013-07-19 12:32:00,
2013-07-19 08:37:00,86.5,76.5,29.94,SSE,165,2.0,6.0,72,0.00,,,0.00,meteohub,2013-07-19 12:37:00,
2013-07-19 08:42:00,86.9,76.3,29.94,WSW,250,2.0,6.0,71,0.00,,,0.00,meteohub,2013-07-19 12:42:00,
2013-07-19 08:47:00,87.1,76.1,29.93,WSW,253,1.0,6.0,70,0.00,,,0.00,meteohub,2013-07-19 12:47:00,
2013-07-19 08:52:00,87.1,76.1,29.93,SSW,194,3.0,7.0,70,0.00,,,0.00,meteohub,2013-07-19 12:52:00,
2013-07-19 08:57:00,87.4,76.5,29.93,SSE,158,6.0,7.0,70,0.00,,,0.00,meteohub,2013-07-19 12:57:00,
2013-07-19 09:02:00,87.3,76.3,29.93,SSW,210,2.0,8.0,70,0.00,,,0.00,meteohub,2013-07-19 13:02:00,
2013-07-19 09:07:00,87.6,76.1,29.94,SW,229,2.0,8.0,69,0.00,,,0.00,meteohub,2013-07-19 13:07:00,
2013-07-19 09:12:00,88.0,76.5,29.93,SW,226,2.0,8.0,69,0.00,,,0.00,meteohub,2013-07-19 13:12:00,
2013-07-19 09:17:00,88.5,76.6,29.93,SSW,210,0.0,5.0,68,0.00,,,0.00,meteohub,2013-07-19 13:17:00,
2013-07-19 09:22:00,89.1,76.6,29.93,WSW,248,5.0,5.0,67,0.00,,,0.00,meteohub,2013-07-19 13:22:00,
2013-07-19 09:26:00,89.2,77.4,29.93,South,187,2.0,5.0,68,0.00,,,0.00,meteohub,2013-07-19 13:26:00,
2013-07-19 09:31:00,90.0,77.0,29.93,SW,232,4.0,5.0,66,0.00,,,0.00,meteohub,2013-07-19 13:31:00,
2013-07-19 09:36:00,90.0,77.0,29.93,South,179,3.0,6.0,66,0.00,,,0.00,meteohub,2013-07-19 13:36:00,
2013-07-19 09:41:00,90.3,77.0,29.93,SSW,194,4.0,6.0,65,0.00,,,0.00,meteohub,2013-07-19 13:41:00,
2013-07-19 09:46:00,90.3,77.0,29.93,South,174,2.0,6.0,65,0.00,,,0.00,meteohub,2013-07-19 13:46:00,
2013-07-19 09:51:00,90.7,77.4,29.93,South,187,4.0,7.0,65,0.00,,,0.00,meteohub,2013-07-19 13:51:00,
2013-07-19 09:56:00,90.7,77.4,29.92,SSE,159,4.0,7.0,65,0.00,,,0.00,meteohub,2013-07-19 13:56:00,
2013-07-19 10:01:00,91.0,77.5,29.92,SSE,160,1.0,7.0,65,0.00,,,0.00,meteohub,2013-07-19 14:01:00,
2013-07-19 10:06:00,91.6,77.7,29.93,South,173,2.0,7.0,64,0.00,,,0.00,meteohub,2013-07-19 14:06:00,
2013-07-19 10:11:00,91.8,77.4,29.93,ESE,115,2.0,8.0,63,0.00,,,0.00,meteohub,2013-07-19 14:11:00,
2013-07-19 10:16:00,91.6,77.2,29.92,South,186,3.0,8.0,63,0.00,,,0.00,meteohub,2013-07-19 14:16:00,
2013-07-19 10:21:00,91.8,77.9,29.92,ESE,121,5.0,9.0,64,0.00,,,0.00,meteohub,2013-07-19 14:21:00,
2013-07-19 10:26:00,92.1,77.2,29.92,South,183,2.0,9.0,62,0.00,,,0.00,meteohub,2013-07-19 14:26:00,
2013-07-19 10:31:00,92.7,77.7,29.92,NW,322,1.0,9.0,62,0.00,,,0.00,meteohub,2013-07-19 14:31:00,
2013-07-19 10:36:00,93.0,77.0,29.92,SSW,200,4.0,8.0,60,0.00,,,0.00,meteohub,2013-07-19 14:36:00,
2013-07-19 10:41:00,92.8,77.4,29.92,South,180,3.0,7.0,61,0.00,,,0.00,meteohub,2013-07-19 14:41:00,
2013-07-19 10:46:00,92.7,77.7,29.92,South,186,2.0,7.0,62,0.00,,,0.00,meteohub,2013-07-19 14:46:00,
2013-07-19 10:51:00,93.6,77.5,29.92,SSW,208,5.0,7.0,60,0.00,,,0.00,meteohub,2013-07-19 14:51:00,
2013-07-19 10:56:00,93.7,77.2,29.92,South,172,2.0,8.0,59,0.00,,,0.00,meteohub,2013-07-19 14:56:00,
2013-07-19 11:01:00,94.8,77.7,29.92,SSE,153,3.0,8.0,58,0.00,,,0.00,meteohub,2013-07-19 15:01:00,
2013-07-19 11:06:00,94.6,77.5,29.92,SSW,200,3.0,8.0,58,0.00,,,0.00,meteohub,2013-07-19 15:06:00,
2013-07-19 11:11:00,94.6,77.0,29.92,SSW,208,3.0,8.0,57,0.00,,,0.00,meteohub,2013-07-19 15:11:00,
2013-07-19 11:16:00,94.6,76.5,29.92,SE,138,4.0,8.0,56,0.00,,,0.00,meteohub,2013-07-19 15:16:00,
2013-07-19 11:21:00,95.2,77.0,29.92,ENE,73,1.0,9.0,56,0.00,,,0.00,meteohub,2013-07-19 15:21:00,
2013-07-19 11:26:00,95.4,77.2,29.91,South,184,5.0,9.0,56,0.00,,,0.00,meteohub,2013-07-19 15:26:00,
2013-07-19 11:32:00,95.7,77.5,29.91,West,278,1.0,8.0,56,0.00,,,0.00,meteohub,2013-07-19 15:32:00,
2013-07-19 11:37:00,95.7,77.0,29.91,SE,134,1.0,8.0,55,0.00,,,0.00,meteohub,2013-07-19 15:37:00,
2013-07-19 11:42:00,96.3,76.8,29.91,SE,124,1.0,6.0,54,0.00,,,0.00,meteohub,2013-07-19 15:42:00,
2013-07-19 11:47:00,95.9,77.2,29.91,ESE,103,0.0,6.0,55,0.00,,,0.00,meteohub,2013-07-19 15:47:00,
2013-07-19 11:52:00,96.3,76.3,29.91,South,179,2.0,6.0,53,0.00,,,0.00,meteohub,2013-07-19 15:52:00,
2013-07-19 11:57:00,96.3,75.7,29.91,WNW,295,2.0,7.0,52,0.00,,,0.00,meteohub,2013-07-19 15:57:00,
2013-07-19 12:02:00,97.3,77.4,29.91,ESE,122,6.0,7.0,53,0.00,,,0.00,meteohub,2013-07-19 16:02:00,
2013-07-19 12:07:00,97.7,76.5,29.91,SE,135,3.0,7.0,51,0.00,,,0.00,meteohub,2013-07-19 16:07:00,
2013-07-19 12:12:00,97.2,75.9,29.91,SSE,148,2.0,9.0,51,0.00,,,0.00,meteohub,2013-07-19 16:12:00,
2013-07-19 12:17:00,97.0,75.9,29.90,ESE,108,3.0,9.0,51,0.00,,,0.00,meteohub,2013-07-19 16:17:00,
2013-07-19 12:22:00,96.8,75.7,29.90,NW,318,2.0,9.0,51,0.00,,,0.00,meteohub,2013-07-19 16:22:00,
2013-07-19 12:27:00,96.6,76.1,29.90,SW,222,4.0,7.0,52,0.00,,,0.00,meteohub,2013-07-19 16:27:00,
2013-07-19 12:32:00,97.2,75.9,29.90,ESE,123,2.0,8.0,51,0.00,,,0.00,meteohub,2013-07-19 16:32:00,
2013-07-19 12:37:00,97.9,76.1,29.90,SSW,203,7.0,8.0,50,0.00,,,0.00,meteohub,2013-07-19 16:37:00,
2013-07-19 12:42:00,97.5,75.7,29.90,SW,215,4.0,8.0,50,0.00,,,0.00,meteohub,2013-07-19 16:42:00,
2013-07-19 12:47:00,97.5,76.3,29.89,SSW,201,2.0,10.0,51,0.00,,,0.00,meteohub,2013-07-19 16:47:00,
2013-07-19 12:52:00,97.5,76.3,29.89,SSW,193,1.0,10.0,51,0.00,,,0.00,meteohub,2013-07-19 16:52:00,
2013-07-19 12:57:00,97.3,76.8,29.89,SW,236,2.0,8.0,52,0.00,,,0.00,meteohub,2013-07-19 16:57:00,
2013-07-19 13:02:00,97.5,76.3,29.88,SW,231,1.0,10.0,51,0.00,,,0.00,meteohub,2013-07-19 17:02:00,
2013-07-19 13:07:00,97.7,77.7,29.88,SE,131,8.0,10.0,53,0.00,,,0.00,meteohub,2013-07-19 17:07:00,
2013-07-19 13:12:00,97.2,77.2,29.88,SW,233,2.0,11.0,53,0.00,,,0.00,meteohub,2013-07-19 17:12:00,
2013-07-19 13:17:00,96.6,77.7,29.88,SSE,165,4.0,12.0,55,0.00,,,0.00,meteohub,2013-07-19 17:17:00,
2013-07-19 13:22:00,96.8,77.4,29.88,SW,233,5.0,12.0,54,0.00,,,0.00,meteohub,2013-07-19 17:22:00,
2013-07-19 13:27:00,97.3,77.9,29.88,SSE,156,3.0,8.0,54,0.00,,,0.00,meteohub,2013-07-19 17:27:00,
2013-07-19 13:32:00,97.5,78.1,29.88,WSW,252,1.0,8.0,54,0.00,,,0.00,meteohub,2013-07-19 17:32:00,
2013-07-19 13:37:00,97.2,77.2,29.88,SW,232,9.0,9.0,53,0.00,,,0.00,meteohub,2013-07-19 17:37:00,
2013-07-19 13:42:00,96.8,77.4,29.88,SW,218,3.0,11.0,54,0.00,,,0.00,meteohub,2013-07-19 17:42:00,
2013-07-19 13:47:00,97.3,78.4,29.87,SSE,150,4.0,11.0,55,0.00,,,0.00,meteohub,2013-07-19 17:47:00,
2013-07-19 13:52:00,97.5,78.1,29.87,South,191,2.0,11.0,54,0.00,,,0.00,meteohub,2013-07-19 17:52:00,
2013-07-19 13:57:00,97.9,77.9,29.87,SSW,212,4.0,9.0,53,0.00,,,0.00,meteohub,2013-07-19 17:57:00,
2013-07-19 14:02:00,97.2,77.7,29.87,SSE,158,4.0,9.0,54,0.00,,,0.00,meteohub,2013-07-19 18:02:00,
2013-07-19 14:07:00,97.7,77.7,29.86,SSW,207,11.0,11.0,53,0.00,,,0.00,meteohub,2013-07-19 18:07:00,
2013-07-19 14:12:00,97.2,77.2,29.86,WNW,300,6.0,11.0,53,0.00,,,0.00,meteohub,2013-07-19 18:12:00,
2013-07-19 14:17:00,96.4,77.0,29.86,SE,134,4.0,13.0,54,0.00,,,0.00,meteohub,2013-07-19 18:17:00,
2013-07-19 14:22:00,95.9,77.7,29.86,SW,214,1.0,13.0,56,0.00,,,0.00,meteohub,2013-07-19 18:22:00,
2013-07-19 14:27:00,96.4,77.5,29.86,South,187,2.0,13.0,55,0.00,,,0.00,meteohub,2013-07-19 18:27:00,
2013-07-19 14:32:00,96.6,77.2,29.86,SSE,167,6.0,11.0,54,0.00,,,0.00,meteohub,2013-07-19 18:32:00,
2013-07-19 14:37:00,97.2,77.7,29.85,WSW,245,3.0,12.0,54,0.00,,,0.00,meteohub,2013-07-19 18:37:00,
2013-07-19 14:42:00,97.5,77.5,29.85,SE,138,6.0,12.0,53,0.00,,,0.00,meteohub,2013-07-19 18:42:00,
2013-07-19 14:47:00,97.9,77.9,29.85,SW,218,4.0,12.0,53,0.00,,,0.00,meteohub,2013-07-19 18:47:00,
2013-07-19 14:52:00,98.2,77.0,29.85,SW,221,3.0,9.0,51,0.00,,,0.00,meteohub,2013-07-19 18:52:00,
2013-07-19 14:57:00,98.4,77.2,29.84,South,181,6.0,11.0,51,0.00,,,0.00,meteohub,2013-07-19 18:57:00,
2013-07-19 15:02:00,97.9,76.6,29.84,SSE,162,9.0,15.0,51,0.00,,,0.00,meteohub,2013-07-19 19:02:00,
2013-07-19 15:07:00,97.3,77.4,29.83,SSE,163,3.0,15.0,53,0.00,,,0.00,meteohub,2013-07-19 19:07:00,
2013-07-19 15:12:00,98.2,77.5,29.83,SSE,153,5.0,15.0,52,0.00,,,0.00,meteohub,2013-07-19 19:12:00,
2013-07-19 15:17:00,98.2,76.5,29.83,South,169,7.0,13.0,50,0.00,,,0.00,meteohub,2013-07-19 19:17:00,
2013-07-19 15:22:00,97.9,76.1,29.83,East,84,4.0,11.0,50,0.00,,,0.00,meteohub,2013-07-19 19:22:00,
2013-07-19 15:27:00,96.8,75.7,29.83,ESE,120,5.0,12.0,51,0.00,,,0.00,meteohub,2013-07-19 19:27:00,
2013-07-19 15:32:00,96.3,75.7,29.82,SSE,159,8.0,12.0,52,0.00,,,0.00,meteohub,2013-07-19 19:32:00,
2013-07-19 15:37:00,96.8,76.3,29.82,ESE,123,8.0,13.0,52,0.00,,,0.00,meteohub,2013-07-19 19:37:00,
2013-07-19 15:42:00,96.6,76.1,29.82,SSW,201,8.0,13.0,52,0.00,,,0.00,meteohub,2013-07-19 19:42:00,
2013-07-19 15:47:00,97.3,76.1,29.82,SSW,203,4.0,14.0,51,0.00,,,0.00,meteohub,2013-07-19 19:47:00,
2013-07-19 15:52:00,97.3,76.1,29.81,South,177,4.0,14.0,51,0.00,,,0.00,meteohub,2013-07-19 19:52:00,
2013-07-19 15:57:00,97.2,75.9,29.81,SSW,210,10.0,13.0,51,0.00,,,0.00,meteohub,2013-07-19 19:57:00,
2013-07-19 16:02:00,97.2,75.4,29.81,SSW,211,6.0,13.0,50,0.00,,,0.00,meteohub,2013-07-19 20:02:00,
2013-07-19 16:07:00,97.2,75.4,29.81,South,169,8.0,13.0,50,0.00,,,0.00,meteohub,2013-07-19 20:07:00,
2013-07-19 16:12:00,97.2,75.4,29.81,South,173,7.0,13.0,50,0.00,,,0.00,meteohub,2013-07-19 20:12:00,
2013-07-19 16:17:00,97.5,76.3,29.81,South,181,8.0,13.0,51,0.00,,,0.00,meteohub,2013-07-19 20:17:00,
2013-07-19 16:22:00,97.3,75.6,29.81,SSE,151,4.0,13.0,50,0.00,,,0.00,meteohub,2013-07-19 20:22:00,
2013-07-19 16:27:00,97.2,75.9,29.81,SSE,147,2.0,13.0,51,0.00,,,0.00,meteohub,2013-07-19 20:27:00,
2013-07-19 16:32:00,97.9,76.1,29.81,SE,129,2.0,13.0,50,0.00,,,0.00,meteohub,2013-07-19 20:32:00,
2013-07-19 16:37:00,97.2,75.4,29.81,SSW,203,5.0,16.0,50,0.00,,,0.00,meteohub,2013-07-19 20:37:00,
2013-07-19 16:42:00,97.0,75.9,29.81,NNW,338,6.0,16.0,51,0.00,,,0.00,meteohub,2013-07-19 20:42:00,
2013-07-19 16:47:00,96.8,76.3,29.81,South,186,8.0,16.0,52,0.00,,,0.00,meteohub,2013-07-19 20:47:00,
2013-07-19 16:52:00,96.4,76.5,29.81,SSW,200,4.0,16.0,53,0.00,,,0.00,meteohub,2013-07-19 20:52:00,
2013-07-19 16:57:00,96.3,75.7,29.81,WSW,240,10.0,16.0,52,0.00,,,0.00,meteohub,2013-07-19 20:57:00,
2013-07-19 17:02:00,96.4,76.5,29.81,SSW,193,9.0,19.0,53,0.00,,,0.00,meteohub,2013-07-19 21:02:00,
2013-07-19 17:07:00,96.6,76.6,29.80,SSW,208,8.0,19.0,53,0.00,,,0.00,meteohub,2013-07-19 21:07:00,
2013-07-19 17:12:00,96.8,76.3,29.80,SE,143,7.0,19.0,52,0.00,,,0.00,meteohub,2013-07-19 21:12:00,
2013-07-19 17:17:00,96.8,76.3,29.81,WSW,258,8.0,16.0,52,0.00,,,0.00,meteohub,2013-07-19 21:17:00,
2013-07-19 17:21:00,96.4,75.4,29.81,South,174,6.0,16.0,51,0.00,,,0.00,meteohub,2013-07-19 21:21:00,
2013-07-19 17:27:00,96.3,75.2,29.81,South,186,4.0,17.0,51,0.00,,,0.00,meteohub,2013-07-19 21:27:00,
2013-07-19 17:32:00,96.3,75.2,29.81,SSW,200,7.0,17.0,51,0.00,,,0.00,meteohub,2013-07-19 21:32:00,
2013-07-19 17:37:00,96.1,75.6,29.81,SSE,153,3.0,17.0,52,0.00,,,0.00,meteohub,2013-07-19 21:37:00,
2013-07-19 17:42:00,96.1,75.6,29.81,SE,142,4.0,17.0,52,0.00,,,0.00,meteohub,2013-07-19 21:42:00,
2013-07-19 17:47:00,96.1,75.6,29.81,South,188,11.0,14.0,52,0.00,,,0.00,meteohub,2013-07-19 21:47:00,
2013-07-19 17:52:00,95.7,75.9,29.81,SE,136,6.0,15.0,53,0.00,,,0.00,meteohub,2013-07-19 21:52:00,
2013-07-19 17:57:00,95.4,75.6,29.81,SSW,201,4.0,15.0,53,0.00,,,0.00,meteohub,2013-07-19 21:57:00,
2013-07-19 18:02:00,95.5,76.3,29.81,SSW,194,8.0,15.0,54,0.00,,,0.00,meteohub,2013-07-19 22:02:00,
2013-07-19 18:07:00,95.2,75.9,29.81,SE,132,3.0,14.0,54,0.00,,,0.00,meteohub,2013-07-19 22:07:00,
2013-07-19 18:12:00,94.8,76.1,29.81,SW,225,4.0,14.0,55,0.00,,,0.00,meteohub,2013-07-19 22:12:00,
2013-07-19 18:17:00,94.8,75.6,29.81,WSW,246,3.0,14.0,54,0.00,,,0.00,meteohub,2013-07-19 22:17:00,
2013-07-19 18:22:00,94.6,75.9,29.81,SE,134,7.0,11.0,55,0.00,,,0.00,meteohub,2013-07-19 22:22:00,
2013-07-19 18:27:00,94.5,75.7,29.81,South,173,6.0,11.0,55,0.00,,,0.00,meteohub,2013-07-19 22:27:00,
2013-07-19 18:32:00,94.3,75.6,29.81,SSW,208,3.0,11.0,55,0.00,,,0.00,meteohub,2013-07-19 22:32:00,
2013-07-19 18:37:00,94.3,76.1,29.80,SW,217,7.0,11.0,56,0.00,,,0.00,meteohub,2013-07-19 22:37:00,
2013-07-19 18:42:00,93.9,75.7,29.80,SSW,203,11.0,11.0,56,0.00,,,0.00,meteohub,2013-07-19 22:42:00,
2013-07-19 18:47:00,93.6,76.1,29.81,South,169,2.0,11.0,57,0.00,,,0.00,meteohub,2013-07-19 22:47:00,
2013-07-19 18:52:00,93.4,75.9,29.80,South,183,9.0,11.0,57,0.00,,,0.00,meteohub,2013-07-19 22:52:00,
2013-07-19 18:57:00,93.2,75.7,29.80,SSW,211,5.0,11.0,57,0.00,,,0.00,meteohub,2013-07-19 22:57:00,
2013-07-19 19:02:00,93.0,76.1,29.80,South,184,2.0,13.0,58,0.00,,,0.00,meteohub,2013-07-19 23:02:00,
2013-07-19 19:07:00,92.8,75.9,29.80,SW,233,6.0,16.0,58,0.00,,,0.00,meteohub,2013-07-19 23:07:00,
2013-07-19 19:12:00,92.7,75.7,29.81,SW,217,9.0,16.0,58,0.00,,,0.00,meteohub,2013-07-19 23:12:00,
2013-07-19 19:17:00,92.7,76.3,29.81,WSW,257,5.0,14.0,59,0.00,,,0.00,meteohub,2013-07-19 23:17:00,
2013-07-19 19:22:00,92.5,76.1,29.81,WSW,238,8.0,14.0,59,0.00,,,0.00,meteohub,2013-07-19 23:22:00,
2013-07-19 19:27:00,92.3,75.9,29.81,ESE,113,2.0,12.0,59,0.00,,,0.00,meteohub,2013-07-19 23:27:00,
2013-07-19 19:32:00,92.1,75.7,29.81,SSE,164,2.0,12.0,59,0.00,,,0.00,meteohub,2013-07-19 23:32:00,
2013-07-19 19:37:00,92.1,76.3,29.81,SW,233,1.0,12.0,60,0.00,,,0.00,meteohub,2013-07-19 23:37:00,
2013-07-19 19:42:00,91.9,76.1,29.82,SE,143,6.0,11.0,60,0.00,,,0.00,meteohub,2013-07-19 23:42:00,
2013-07-19 19:47:00,91.8,75.9,29.81,SW,232,0.0,10.0,60,0.00,,,0.00,meteohub,2013-07-19 23:47:00,
2013-07-19 19:52:00,91.8,76.5,29.81,SSW,194,1.0,9.0,61,0.00,,,0.00,meteohub,2013-07-19 23:52:00,
2013-07-19 19:57:00,91.6,76.3,29.82,South,172,3.0,8.0,61,0.00,,,0.00,meteohub,2013-07-19 23:57:00,
2013-07-19 20:02:00,91.6,76.3,29.82,SSE,167,5.0,8.0,61,0.00,,,0.00,meteohub,2013-07-20 00:02:00,
2013-07-19 20:07:00,91.4,76.1,29.83,SSE,162,3.0,6.0,61,0.00,,,0.00,meteohub,2013-07-20 00:07:00,
2013-07-19 20:12:00,91.2,76.3,29.83,WSW,257,2.0,6.0,62,0.00,,,0.00,meteohub,2013-07-20 00:12:00,
2013-07-19 20:17:00,91.2,76.3,29.83,SSW,194,3.0,8.0,62,0.00,,,0.00,meteohub,2013-07-20 00:17:00,
2013-07-19 20:22:00,91.2,76.3,29.83,SSW,194,1.0,8.0,62,0.00,,,0.00,meteohub,2013-07-20 00:22:00,
2013-07-19 20:27:00,91.2,76.3,29.83,WSW,253,5.0,8.0,62,0.00,,,0.00,meteohub,2013-07-20 00:27:00,
2013-07-19 20:32:00,91.0,76.3,29.83,West,264,5.0,7.0,62,0.00,,,0.00,meteohub,2013-07-20 00:32:00,
2013-07-19 20:37:00,90.9,76.1,29.83,South,189,3.0,12.0,62,0.00,,,0.00,meteohub,2013-07-20 00:37:00,
2013-07-19 20:42:00,90.7,76.3,29.83,SE,141,1.0,12.0,63,0.00,,,0.00,meteohub,2013-07-20 00:42:00,
2013-07-19 20:47:00,90.7,76.3,29.83,SSW,211,2.0,12.0,63,0.00,,,0.00,meteohub,2013-07-20 00:47:00,
2013-07-19 20:52:00,90.3,76.5,29.83,SSW,193,2.0,8.0,64,0.00,,,0.00,meteohub,2013-07-20 00:52:00,
2013-07-19 20:57:00,90.1,76.3,29.83,SW,236,3.0,8.0,64,0.00,,,0.00,meteohub,2013-07-20 00:57:00,
2013-07-19 21:02:00,90.0,76.1,29.83,WSW,257,7.0,8.0,64,0.00,,,0.00,meteohub,2013-07-20 01:02:00,
2013-07-19 21:07:00,89.8,76.5,29.83,SE,136,2.0,7.0,65,0.00,,,0.00,meteohub,2013-07-20 01:07:00,
2013-07-19 21:12:00,89.8,76.5,29.83,East,84,1.0,10.0,65,0.00,,,0.00,meteohub,2013-07-20 01:12:00,
2013-07-19 21:17:00,89.4,75.6,29.83,SSW,208,2.0,10.0,64,0.00,,,0.00,meteohub,2013-07-20 01:17:00,
2013-07-19 21:22:00,89.4,75.6,29.82,WNW,286,2.0,8.0,64,0.00,,,0.00,meteohub,2013-07-20 01:22:00,
2013-07-19 21:27:00,89.4,75.2,29.83,WSW,238,6.0,8.0,63,0.00,,,0.00,meteohub,2013-07-20 01:27:00,
2013-07-19 21:32:00,89.2,75.0,29.82,WSW,255,3.0,8.0,63,0.00,,,0.00,meteohub,2013-07-20 01:32:00,
2013-07-19 21:37:00,89.2,75.0,29.82,SSW,207,4.0,7.0,63,0.00,,,0.00,meteohub,2013-07-20 01:37:00,
2013-07-19 21:42:00,89.2,74.5,29.82,South,178,5.0,7.0,62,0.00,,,0.00,meteohub,2013-07-20 01:42:00,
2013-07-19 21:47:00,89.1,74.3,29.82,SSE,148,1.0,6.0,62,0.00,,,0.00,meteohub,2013-07-20 01:47:00,
2013-07-19 21:52:00,89.1,73.9,29.82,SSW,200,1.0,6.0,61,0.00,,,0.00,meteohub,2013-07-20 01:52:00,
2013-07-19 21:57:00,89.1,73.4,29.82,SW,215,1.0,6.0,60,0.00,,,0.00,meteohub,2013-07-20 01:57:00,
2013-07-19 22:02:00,89.1,72.9,29.83,West,274,4.0,6.0,59,0.00,,,0.00,meteohub,2013-07-20 02:02:00,
2013-07-19 22:07:00,88.9,72.1,29.83,WSW,245,6.0,8.0,58,0.00,,,0.00,meteohub,2013-07-20 02:07:00,
2013-07-19 22:12:00,88.9,72.1,29.83,WSW,238,3.0,8.0,58,0.00,,,0.00,meteohub,2013-07-20 02:12:00,
2013-07-19 22:17:00,88.5,71.4,29.83,WSW,249,5.0,9.0,57,0.00,,,0.00,meteohub,2013-07-20 02:17:00,
2013-07-19 22:22:00,88.5,71.4,29.83,WNW,302,1.0,11.0,57,0.00,,,0.00,meteohub,2013-07-20 02:22:00,
2013-07-19 22:27:00,88.3,71.2,29.83,SSW,197,2.0,11.0,57,0.00,,,0.00,meteohub,2013-07-20 02:27:00,
2013-07-19 22:32:00,88.3,71.2,29.83,WSW,254,1.0,11.0,57,0.00,,,0.00,meteohub,2013-07-20 02:32:00,
2013-07-19 22:37:00,88.2,71.6,29.83,SW,233,4.0,9.0,58,0.00,,,0.00,meteohub,2013-07-20 02:37:00,
2013-07-19 22:42:00,88.0,71.4,29.83,West,271,1.0,7.0,58,0.00,,,0.00,meteohub,2013-07-20 02:42:00,
2013-07-19 22:47:00,88.0,71.8,29.83,SSW,208,2.0,7.0,59,0.00,,,0.00,meteohub,2013-07-20 02:47:00,
2013-07-19 22:52:00,87.6,71.6,29.83,SW,224,2.0,8.0,59,0.00,,,0.00,meteohub,2013-07-20 02:52:00,
2013-07-19 22:57:00,87.6,71.6,29.82,NW,308,1.0,8.0,59,0.00,,,0.00,meteohub,2013-07-20 02:57:00,
2013-07-19 23:02:00,87.4,71.8,29.82,SW,228,1.0,8.0,60,0.00,,,0.00,meteohub,2013-07-20 03:02:00,
2013-07-19 23:07:00,87.3,71.6,29.82,South,183,3.0,6.0,60,0.00,,,0.00,meteohub,2013-07-20 03:07:00,
2013-07-19 23:12:00,87.3,72.1,29.82,SSW,207,4.0,5.0,61,0.00,,,0.00,meteohub,2013-07-20 03:12:00,
2013-07-19 23:17:00,87.3,72.1,29.82,WSW,255,5.0,6.0,61,0.00,,,0.00,meteohub,2013-07-20 03:17:00,
2013-07-19 23:22:00,87.1,72.0,29.82,ESE,121,2.0,10.0,61,0.00,,,0.00,meteohub,2013-07-20 03:22:00,
2013-07-19 23:27:00,87.1,72.5,29.82,ESE,120,2.0,10.0,62,0.00,,,0.00,meteohub,2013-07-20 03:27:00,
2013-07-19 23:32:00,86.7,72.1,29.82,SSE,153,3.0,10.0,62,0.00,,,0.00,meteohub,2013-07-20 03:32:00,
2013-07-19 23:37:00,86.7,72.1,29.81,SW,219,3.0,7.0,62,0.00,,,0.00,meteohub,2013-07-20 03:37:00,
2013-07-19 23:42:00,86.7,71.6,29.81,South,176,2.0,7.0,61,0.00,,,0.00,meteohub,2013-07-20 03:42:00,
2013-07-19 23:47:00,86.5,71.4,29.81,SW,223,6.0,7.0,61,0.00,,,0.00,meteohub,2013-07-20 03:47:00,
2013-07-19 23:52:00,86.4,71.8,29.81,SW,234,3.0,7.0,62,0.00,,,0.00,meteohub,2013-07-20 03:52:00,
2013-07-19 23:57:00,86.2,71.6,29.81,WSW,253,0.0,7.0,62,0.00,,,0.00,meteohub,2013-07-20 03:57:00,